Time,TemperatureF,DewpointF,PressureIn,WindDirection,WindDirectionDegrees,WindSpeedMPH,WindSpeedGustMPH,Humidity,HourlyPrecipIn,Conditions,Clouds,dailyrainin,SoftwareType,DateUTC
2013-06-24 00:40:00,78.0,-99.9,-100.00,NW,324,1.0,2.0,-999,-99.99,,,-99.99,,2013-06-24 07:40:00,
2013-06-24 01:15:00,76.0,-99.9,-100.00,NNE,22,7.0,7.0,-999,-99.99,,,-99.99,,2013-06-24 08:15:00,
2013-06-24 01:28:00,78.0,-99.9,-100.00,NW,324,1.0,2.0,-999,-99.99,,,-99.99,,2013-06-24 08:28:00,
2013-06-24 01:57:00,76.0,-99.9,-100.00,NNE,22,7.0,7.0,-999,-99.99,,,-99.99,,2013-06-24 08:57:00,
2013-06-24 02:00:00,76.0,-99.9,-100.00,NNE,27,5.0,6.0,-999,-99.99,,,-99.99,,2013-06-24 09:00:00,
2013-06-24 02:09:00,76.0,-99.9,-100.00,NNE,22,7.0,7.0,-999,-99.99,,,-99.99,,2013-06-24 09:09:00,
2013-06-24 02:28:00,76.0,-99.9,-100.00,SSW,196,2.0,5.0,-999,-99.99,,,-99.99,,2013-06-24 09:28:00,
2013-06-24 02:49:00,76.0,-99.9,-100.00,NNE,27,5.0,6.0,-999,-99.99,,,-99.99,,2013-06-24 09:49:00,
2013-06-24 02:50:00,76.0,-99.9,-100.00,NNE,16,6.0,7.0,-999,-99.99,,,-99.99,,2013-06-24 09:50:00,
2013-06-24 04:10:00,72.0,-99.9,-100.00,NNE,27,8.0,12.0,-999,-99.99,,,-99.99,,2013-06-24 11:10:00,
2013-06-24 04:30:00,73.0,-99.9,-100.00,South,178,7.0,8.0,-999,-99.99,,,-99.99,,2013-06-24 11:30:00,
2013-06-24 04:59:00,72.0,-99.9,-100.00,NNE,27,8.0,12.0,-999,-99.99,,,-99.99,,2013-06-24 11:59:00,
2013-06-24 05:07:00,72.0,-99.9,-100.00,NNE,27,8.0,12.0,-999,-99.99,,,-99.99,,2013-06-24 12:07:00,
2013-06-24 05:10:00,73.0,-99.9,-100.00,NNW,328,1.0,6.0,-999,-99.99,,,-99.99,,2013-06-24 12:10:00,
2013-06-24 05:26:00,73.0,-99.9,-100.00,South,178,7.0,8.0,-999,-99.99,,,-99.99,,2013-06-24 12:26:00,
2013-06-24 05:55:00,72.0,-99.9,-100.00,WNW,301,1.0,2.0,-999,-99.99,,,-99.99,,2013-06-24 12:55:00,
2013-06-24 05:56:00,73.0,-99.9,-100.00,NNW,328,1.0,6.0,-999,-99.99,,,-99.99,,2013-06-24 12:56:00,
2013-06-24 06:07:00,73.0,-99.9,-100.00,NNW,328,1.0,6.0,-999,-99.99,,,-99.99,,2013-06-24 13:07:00,
2013-06-24 07:10:00,75.0,-99.9,-100.00,NNW,337,3.0,4.0,-999,-99.99,,,-99.99,,2013-06-24 14:10:00,
2013-06-24 07:30:00,75.0,-99.9,-100.00,SW,218,4.0,5.0,-999,-99.99,,,-99.99,,2013-06-24 14:30:00,
2013-06-24 08:00:00,75.0,-99.9,-100.00,NNW,337,3.0,4.0,-999,-99.99,,,-99.99,,2013-06-24 15:00:00,
2013-06-24 08:06:00,75.0,-99.9,-100.00,NNW,337,3.0,4.0,-999,-99.99,,,-99.99,,2013-06-24 15:06:00,
2013-06-24 08:27:00,75.0,-99.9,-100.00,SW,218,4.0,5.0,-999,-99.99,,,-99.99,,2013-06-24 15:27:00,
2013-06-24 08:58:00,78.0,-99.9,-100.00,WNW,295,1.0,4.0,-999,-99.99,,,-99.99,,2013-06-24 15:58:00,
2013-06-24 10:10:00,83.0,-99.9,-100.00,SE,141,3.0,5.0,-999,-99.99,,,-99.99,,2013-06-24 17:10:00,
2013-06-24 10:50:00,84.0,-99.9,-100.00,SW,235,5.0,8.0,-999,-99.99,,,-99.99,,2013-06-24 17:50:00,
2013-06-24 11:03:00,83.0,-99.9,-100.00,SE,141,3.0,5.0,-999,-99.99,,,-99.99,,2013-06-24 18:03:00,
2013-06-24 12:05:00,87.0,-99.9,-100.00,NNW,342,7.0,10.0,-999,-99.99,,,-99.99,,2013-06-24 19:05:00,
2013-06-24 12:26:00,87.0,-99.9,-100.00,NNW,345,8.0,15.0,-999,-99.99,,,-99.99,,2013-06-24 19:26:00,
2013-06-24 12:47:00,87.0,-99.9,-100.00,NNW,341,7.0,10.0,-999,-99.99,,,-99.99,,2013-06-24 19:47:00,
2013-06-24 12:57:00,87.0,-99.9,-100.00,NNW,342,7.0,10.0,-999,-99.99,,,-99.99,,2013-06-24 19:57:00,
2013-06-24 14:25:00,93.0,-99.9,-100.00,WSW,250,2.0,10.0,-999,-99.99,,,-99.99,,2013-06-24 21:25:00,
2013-06-24 14:55:00,94.0,-99.9,-100.00,WNW,291,12.0,18.0,-999,-99.99,,,-99.99,,2013-06-24 21:55:00,
2013-06-24 16:40:00,94.0,-99.9,-100.00,NNE,13,6.0,16.0,-999,-99.99,,,-99.99,,2013-06-24 23:40:00,
2013-06-24 17:25:00,94.0,-99.9,-100.00,NNE,13,6.0,16.0,-999,-99.99,,,-99.99,,2013-06-25 00:25:00,
2013-06-24 17:36:00,94.0,-99.9,-100.00,NNE,13,6.0,16.0,-999,-99.99,,,-99.99,,2013-06-25 00:36:00,
2013-06-24 18:04:00,94.0,-99.9,-100.00,NW,316,11.0,17.0,-999,-99.99,,,-99.99,,2013-06-25 01:04:00,
2013-06-24 18:15:00,89.0,-99.9,-100.00,NNE,20,19.0,24.0,-999,-99.99,,,-99.99,,2013-06-25 01:15:00,
2013-06-24 18:46:00,91.0,-99.9,-100.00,NNW,341,12.0,22.0,-999,-99.99,,,-99.99,,2013-06-25 01:46:00,
2013-06-24 18:59:00,90.0,-99.9,-100.00,North,357,15.0,23.0,-999,-99.99,,,-99.99,,2013-06-25 01:59:00,
2013-06-24 19:26:00,89.0,-99.9,-100.00,North,359,15.0,21.0,-999,-99.99,,,-99.99,,2013-06-25 02:26:00,
2013-06-24 19:30:00,85.0,-99.9,-100.00,North,353,15.0,16.0,-999,-99.99,,,-99.99,,2013-06-25 02:30:00,
2013-06-24 22:00:00,80.0,-99.9,-100.00,WNW,291,0.0,7.0,-999,-99.99,,,-99.99,,2013-06-25 05:00:00,
2013-06-24 22:22:00,81.0,-99.9,-100.00,North,7,5.0,10.0,-999,-99.99,,,-99.99,,2013-06-25 05:22:00,
2013-06-24 22:45:00,81.0,-99.9,-100.00,East,79,0.0,7.0,-999,-99.99,,,-99.99,,2013-06-25 05:45:00,
2013-06-24 22:52:00,80.0,-99.9,-100.00,WNW,291,0.0,7.0,-999,-99.99,,,-99.99,,2013-06-25 05:52:00,
2013-06-24 23:43:00,79.0,-99.9,-100.00,NNW,338,0.0,9.0,-999,-99.99,,,-99.99,,2013-06-25 06:43:00,
2013-06-24 23:52:00,79.0,-99.9,-100.00,NNW,338,0.0,9.0,-999,-99.99,,,-99.99,,2013-06-25 06:52:00,